Regional Weather Roundup
Issued by NWS Charleston, SC

Current Version | Previous Version | Graphics & Text | Print | Product List | Glossary On
Versions: 1 2 3 4 5 6 7 8 9 10 11 12 13 14 15 16 17 18 19 20 21 22 23 24 25 26 27 28 29 30 31 32 33 34 35 36 37 38 39 40 41 42 43 44 45 46 47 48 49 50
934 ASUS42 KCHS 261913 RWRCHS REGIONAL WEATHER ROUNDUP NATIONAL WEATHER SERVICE CHARLESTON SC 300 PM EDT TUE JUL 26 2016 NOTE: "FAIR" INDICATES FEW OR NO CLOUDS BELOW 12,000 FEET WITH NO SIGNIFICANT WEATHER AND/OR OBSTRUCTIONS TO VISIBILITY. NOT ALL STATIONS ARE QUALITY CONTROLLED. USE DATA WITH CAUTION... ESPECIALLY DEWPOINT OBSERVATIONS. SCZ027-030-031-034>040-042>050-262000- ...SOUTHEAST SOUTH CAROLINA... CITY SKY/WX TMP DP RH WIND PRES REMARKS N CHARLESTON MOSUNNY 95 68 41 SW5 30.01F HX 99 WATERFRONT PRK N/A 88 79 74 S9 30.01S HX 103 MOUNT PLEASANT FAIR 91 79 66 S10 30.02F HX 107 JOHNS ISLAND FAIR 91 79 66 S15 30.02F HX 107 PINOPOLIS N/A 93 72 49 CALM 29.93F HX 100 MONCKS CORNER FAIR 91 68 46 SE5 30.00F HX 95 SUMMERVILLE FAIR 97 70 41 S5 30.02F HX 103 BEAUFORT MCAS MOSUNNY 98 69 38 SW12 30.03F HX 104 BEAUFORT ARPT FAIR 90 77 66 S12 30.03F HX 102 HILTON HEAD IS MOSUNNY 95 75 52 S10 30.05F HX 107 WALTERBORO CLEAR 97 68 38 SW8 30.02F HX 101 ALLENDALE FAIR 95 66 38 VRB7 30.01F HX 98 ...SOUTHERN MIDLANDS AND PEE DEE... CITY SKY/WX TMP DP RH WIND PRES REMARKS GEORGETOWN MOCLDY 90 75 62 S7 30.02F HX 100 KINGSTREE FAIR 95 68 41 CALM 30.00F HX 99 ORANGEBURG SUNNY 96 70 42 S7G17 30.01F HX 102 BARNWELL NOT AVBL AIKEN MOCLDY 91 68 46 S6 30.05S HX 95 MANNING FAIR 91 72 52 S5 30.00F HX 98 COLUMBIA MOSUNNY 100 68 35 VRB5 29.97F HX 105 SUMTER MOSUNNY 97 70 41 VRB1 29.97F HX 103 FLORENCE MOSUNNY 95 75 52 SW7 30.00F HX 107 MYRTLE BEACH MOSUNNY 90 72 55 S15 30.03F HX 96 N MYRTLE BEACH SUNNY 88 77 69 S16 30.01F HX 100 $$ GAZ063-065-086>088-099>101-113>116-118-119-134>141-150-262000- ...SOUTHEAST GEORGIA... CITY SKY/WX TMP DP RH WIND PRES REMARKS SAVANNAH ARPT MOSUNNY 95 71 45 S13 30.03F HX 102 HUNTER AAF MOSUNNY 90 79 71 S9 30.01F HX 106 FORT STEWART PTSUNNY 92 72 52 SE3 30.01F HX 100 STATESBORO MOSUNNY 94 73 49 SW5 30.03F HX 103 SYLVANIA NOT AVBL CLAXTON MOCLDY 94 73 50 SE5 30.03F HX 102 ...CSRA...CENTRAL AND FAR SOUTHEAST GEORGIA... CITY SKY/WX TMP DP RH WIND PRES REMARKS THOMSON NOT AVBL AUGUSTA-BUSH MOSUNNY 99 65 32 VRB7 29.99F HX 102 AUGUSTA-DANIEL MOSUNNY 98 67 36 S15 30.02F HX 102 SWAINSBORO MOCLDY 91 68 46 S3 30.03F HX 95 VIDALIA LGT RAIN 91 70 49 SW8 30.04S HX 97 EASTMAN CLOUDY 92 57 30 SW6 30.06F HX 91 HAZLEHURST FAIR 95 73 48 CALM 30.03F HX 104 ALMA MOSUNNY 94 70 45 S13 30.03F HX 100 WAYCROSS PTSUNNY 95 74 50 SW7 30.04F HX 105 JESUP FAIR 97 75 49 S6 30.04F HX 109 BAXLEY PTSUNNY 93 75 55 S7 30.03F HX 104 BRUNSWICK SUNNY 95 77 55 SW5 30.05F HX 109 SAINT SIMONS SUNNY 91 73 55 SE14 30.05F HX 99 $$ SCZ027-028-034-036>038-045-046-048>050-GAZ119-141-262000- ...LAKE AND SUPPLEMENTAL COASTAL OBSERVATIONS... STATION/POSITION TIME TEMP WIND PRES WAVE SWELL AIR SEA DIR/SP/G HT/PER HT/PER/DIR (UTC) (F) (DEG/KT/KT) (MB) (FT/S) (FT/S/D) WINYAH BAY 1745 88 160/ 11 1016.0 LAKE MURRAY NOT AVBL ACE BASIN NERRS 1745 92 170/ 1 1017.0 FORT PULASKI 1800 87 87 150/ 8/ 12 1018.1F SAPELO ISLAND 1800 92 150/ 8 1018.0S $$ ANZ835-935-AMZ111-154-330-350-352-354-370-450-454-472-262000- ...C-MAN AND BUOY OBSERVATIONS... STATION/POSITION TIME TEMP WIND PRES WAVE SWELL AIR SEA DIR/SP/G HT/PER HT/PER/DIR (UTC) (F) (DEG/KT/KT) (MB) (FT/S) (FT/S/D) BUOY 41004 1850 85 86 220/ 12/ 14 1016.8F 2/ 4 2/150/ 8 BUOY 41008 1850 85 89 170/ 6/ 8 1017.8F 2/ 5 2/160/ 5 FOLLY BEACH CMAN 1900 86 190/ 15/ 16 1017.1F CAPERS NEARSHORE 1808 84 85 210/ 14/ 17 1017.0F FRIPP NEARSHORE 1808 85 87 200/ 12/ 16 1017.0F STATION/POSITION TIME TEMP WIND PRES WAVE SWELL AIR SEA DIR/SP/G HT/PER HT/PER/DIR (UTC) (F) (DEG/KT/KT) (MB) (FT/S) (FT/S/D) 5E ST. MARYS GA 1801 88 N/A 2/ 8 FRYING PAN BUOY 1800 85 85 220/ 12/ 14 1017.0F BUOY 41025 1850 84 84 230/ 21/ 25 1014.7F 5/ 6 CAPE LOOKOUT NC 1900 86 230/ 13/ 17 1015.3F BUOY 41002 1850 84 85 270/ 12/ 12 1018.3F 3/ 4 2/120/ 8 BUOY 41010 1820 83 87 120/ 6/ 6 1019.5F ST AUGUSTINE FL 1900 84 87 120/ 12/ 12 1018.7F $$

USA.gov is the U.S. government's official web portal to all federal, state and local government web resources and services.